�N����,����,�~����,�C��,���x,�C��,����,���ϕ���,�ő�u�ԕ���,�ő厞����,���˗�,�I�_���x,�n�����x,�ő啗���N��,DTYPE
"20/07/03","00:10",0.0,21.0,85.5,1008.3,343.8,1.1,1.8,352.8,0.00,18.5,23.3,"00:00:40",1
"20/07/03","00:20",0.0,20.8,85.8,1007.8,329.2,1.6,2.6,326.5,0.00,18.4,23.4,"00:18:40",1
"20/07/03","00:30",0.0,20.8,86.2,1007.8,330.2,2.0,3.3,333.7,0.00,18.4,23.2,"00:29:12",1
"20/07/03","00:40",0.0,20.7,86.3,1007.6,329.6,2.5,3.3,333.1,0.00,18.4,23.1,"00:34:48",1
"20/07/03","00:50",0.0,20.8,86.0,1007.1,327.7,2.8,4.1,325.5,0.00,18.4,23.3,"00:47:52",1
"20/07/03","01:00",0.0,20.7,86.0,1007.6,323.9,2.7,4.2,324.5,0.00,18.3,23.0,"00:52:32",1
"20/07/03","01:10",0.0,20.7,86.0,1007.8,329.1,2.3,3.5,336.7,0.00,18.3,23.2,"01:06:32",1
"20/07/03","01:20",0.0,20.6,86.1,1007.8,331.7,2.0,2.9,331.3,0.00,18.2,23.0,"01:12:00",1
"20/07/03","01:30",0.0,20.4,86.4,1007.6,330.4,2.2,3.4,327.4,0.00,18.1,23.0,"01:28:32",1
"20/07/03","01:40",0.0,20.5,86.5,1007.8,326.5,2.6,3.3,335.5,0.00,18.2,23.1,"01:30:56",1
"20/07/03","01:50",0.0,20.5,86.5,1007.6,326.0,2.7,3.9,336.3,0.00,18.2,22.8,"01:40:24",1
"20/07/03","02:00",0.0,20.4,86.5,1007.4,331.3,2.7,4.7,342.1,0.00,18.1,22.7,"01:52:00",1
"20/07/03","02:10",0.0,20.3,86.7,1007.4,314.8,2.2,3.6,332.6,0.00,18.1,22.8,"02:01:20",1
"20/07/03","02:20",0.0,20.2,87.0,1007.6,322.2,2.8,4.1,335.3,0.00,18.0,22.7,"02:17:04",1
"20/07/03","02:30",0.0,20.1,87.2,1007.1,327.5,2.7,4.8,328.1,0.00,17.9,22.7,"02:24:00",1
"20/07/03","02:40",0.0,19.8,87.5,1007.8,299.1,1.6,3.1,315.7,0.00,17.7,22.6,"02:31:52",1
"20/07/03","02:50",0.0,19.8,87.9,1007.1,309.9,1.7,2.8,348.0,0.00,17.8,22.5,"02:47:28",1
"20/07/03","03:00",0.0,19.6,88.3,1007.6,314.4,2.1,4.3,319.7,0.00,17.7,22.7,"02:54:00",1
"20/07/03","03:10",0.0,19.6,88.7,1007.8,319.7,2.2,4.1,337.5,0.00,17.7,22.6,"03:08:40",1
"20/07/03","03:20",0.0,19.7,88.8,1007.8,322.7,2.3,3.2,328.2,0.00,17.8,22.5,"03:17:28",1
"20/07/03","03:30",0.0,19.7,88.8,1007.8,314.7,1.6,2.2,329.8,0.00,17.8,22.6,"03:24:40",1
"20/07/03","03:40",0.0,19.6,89.0,1007.8,324.9,2.0,2.7,338.6,0.00,17.8,22.5,"03:39:36",1
"20/07/03","03:50",0.0,19.5,89.1,1007.8,317.8,2.2,3.6,331.0,0.00,17.7,22.3,"03:45:20",1
"20/07/03","04:00",0.0,19.5,89.2,1008.3,334.6,0.8,2.1,322.4,0.00,17.7,22.3,"03:50:08",1
"20/07/03","04:10",0.0,19.3,89.4,1008.1,315.7,0.8,1.8,331.8,0.00,17.6,22.3,"04:04:56",1
"20/07/03","04:20",0.0,19.2,89.6,1008.1,297.0,0.7,1.7,268.7,0.00,17.5,22.2,"04:19:52",1
"20/07/03","04:30",0.0,19.1,89.8,1008.1,310.7,1.5,2.5,321.4,0.00,17.4,22.2,"04:22:56",1
"20/07/03","04:40",0.0,19.2,90.0,1008.6,327.1,1.7,2.5,334.3,0.00,17.6,22.2,"04:34:48",1
"20/07/03","04:50",0.0,19.1,90.2,1008.1,339.8,1.7,3.3,339.0,0.00,17.5,22.3,"04:40:02",1
"20/07/03","05:00",0.0,19.1,90.4,1008.3,329.0,2.7,3.7,332.0,0.00,17.5,22.3,"04:58:56",1
"20/07/03","05:10",0.0,19.2,90.6,1007.8,325.6,2.2,3.3,338.6,0.00,17.7,22.2,"05:04:16",1
"20/07/03","05:20",0.0,19.3,90.6,1008.1,329.5,2.0,3.6,320.3,0.00,17.8,22.1,"05:16:24",1
"20/07/03","05:30",0.0,19.4,90.7,1008.3,330.4,2.7,3.7,336.8,0.00,17.9,22.1,"05:27:28",1
"20/07/03","05:40",0.0,19.4,90.6,1008.3,327.5,2.5,3.7,333.9,0.00,17.9,22.0,"05:33:36",1
"20/07/03","05:50",0.0,19.5,90.5,1008.8,325.3,2.2,3.4,310.7,0.01,17.9,22.2,"05:47:52",1
"20/07/03","06:00",0.0,19.6,90.4,1008.8,321.8,2.5,3.7,335.4,0.01,18.0,22.2,"05:56:08",1
"20/07/03","06:10",0.0,19.7,90.3,1009.0,325.8,2.1,2.7,319.1,0.01,18.1,22.1,"06:01:20",1
"20/07/03","06:20",0.0,19.8,90.1,1009.0,333.9,2.0,3.6,330.6,0.01,18.2,22.2,"06:11:52",1
"20/07/03","06:30",0.0,19.9,90.0,1009.0,330.8,2.3,3.3,330.8,0.02,18.3,22.2,"06:29:36",1
"20/07/03","06:40",0.0,20.0,89.9,1009.0,333.3,2.0,3.4,342.2,0.02,18.3,22.2,"06:32:00",1
"20/07/03","06:50",0.0,20.2,89.7,1009.3,331.3,1.2,2.5,335.0,0.03,18.5,21.9,"06:49:52",1
"20/07/03","07:00",0.0,20.5,89.6,1009.3,331.4,1.3,2.2,328.9,0.06,18.8,22.2,"06:57:12",1
"20/07/03","07:10",0.0,20.7,89.4,1009.3,331.2,1.2,2.2,310.7,0.07,18.9,22.1,"07:00:16",1
"20/07/03","07:20",0.0,20.8,89.0,1009.0,336.5,1.6,3.4,324.5,0.07,19.0,22.2,"07:16:48",1
"20/07/03","07:30",0.0,21.2,88.5,1009.0,332.8,1.5,2.1,326.7,0.09,19.3,22.3,"07:22:08",1
"20/07/03","07:40",0.0,21.4,87.8,1009.3,332.6,1.2,3.3,340.6,0.09,19.3,22.4,"07:30:32",1
"20/07/03","07:50",0.0,21.7,87.1,1009.7,314.8,1.0,1.9,336.7,0.10,19.5,22.4,"07:43:20",1
"20/07/03","08:00",0.0,21.9,86.3,1009.0,282.5,0.7,1.6,326.9,0.11,19.5,22.5,"07:53:44",1
"20/07/03","08:10",0.0,22.1,85.1,1009.0,284.0,0.6,1.3,342.7,0.12,19.5,22.6,"08:04:24",1
"20/07/03","08:20",0.0,22.2,84.1,1008.8,13.0,0.6,1.6,340.2,0.12,19.4,22.5,"08:17:20",1
"20/07/03","08:30",0.0,22.1,83.0,1009.0,318.4,1.0,1.7,340.6,0.06,19.1,22.8,"08:24:16",1
"20/07/03","08:40",0.0,22.3,82.4,1008.6,299.2,0.5,0.9,263.9,0.09,19.2,22.7,"08:36:00",1
"20/07/03","08:50",0.0,22.6,81.5,1008.3,348.6,0.3,0.9,310.2,0.09,19.3,22.8,"08:41:52",1
"20/07/03","09:00",0.0,22.6,80.8,1008.6,287.9,0.5,0.9,305.0,0.07,19.2,22.9,"08:52:00",1
"20/07/03","09:10",0.0,22.6,80.4,1008.3,334.2,0.8,1.4,327.5,0.08,19.1,22.9,"09:01:36",1
"20/07/03","09:20",0.0,22.8,80.1,1008.3,337.6,0.5,1.1,343.3,0.08,19.2,22.9,"09:18:00",1
"20/07/03","09:30",0.0,22.7,79.7,1008.6,284.4,0.7,1.2,301.4,0.06,19.1,23.2,"09:22:56",1
"20/07/03","09:40",0.0,22.7,79.7,1008.3,294.3,0.7,1.3,287.2,0.08,19.1,23.2,"09:35:44",1
"20/07/03","09:50",0.0,22.8,79.4,1008.3,269.5,0.5,1.6,285.5,0.09,19.1,23.2,"09:45:12",1
"20/07/03","10:00",0.0,22.8,79.2,1008.3,321.2,1.1,2.4,339.9,0.07,19.0,23.1,"09:53:44",1
"20/07/03","10:10",0.0,23.0,79.4,1008.1,342.5,1.0,1.9,346.0,0.10,19.3,23.2,"10:08:08",1
"20/07/03","10:20",0.0,23.0,79.0,1008.1,335.7,0.8,1.6,335.3,0.08,19.2,23.2,"10:11:44",1
"20/07/03","10:30",0.0,23.2,78.7,1007.8,285.7,0.3,0.9,264.9,0.08,19.3,23.3,"10:27:44",1
"20/07/03","10:40",0.0,23.2,78.6,1008.1,220.7,0.6,1.2,236.6,0.07,19.3,23.3,"10:30:48",1
"20/07/03","10:50",0.0,22.9,79.2,1007.8,240.3,0.6,1.3,303.0,0.06,19.1,23.2,"10:46:48",1
"20/07/03","11:00",0.0,22.9,80.1,1008.1,296.3,0.7,1.3,331.2,0.08,19.3,23.3,"10:59:52",1
"20/07/03","11:10",0.0,22.9,80.8,1007.6,326.8,1.2,2.2,335.8,0.10,19.5,23.4,"11:09:52",1
"20/07/03","11:20",0.0,22.9,81.4,1008.3,343.6,1.1,2.4,343.4,0.09,19.6,23.2,"11:10:32",1
"20/07/03","11:30",0.0,23.0,81.8,1008.1,347.3,0.6,1.8,343.5,0.10,19.8,23.6,"11:23:28",1
"20/07/03","11:40",0.0,23.1,81.3,1007.8,2.7,0.5,1.3,45.9,0.11,19.8,23.5,"11:36:00",1
"20/07/03","11:50",0.0,23.4,80.6,1007.8,295.8,0.7,1.4,347.8,0.14,19.9,23.5,"11:42:56",1
"20/07/03","12:00",0.0,23.7,79.8,1007.8,275.5,0.3,1.0,324.7,0.13,20.0,23.5,"11:54:00",1
"20/07/03","12:10",0.0,23.8,79.1,1007.8,242.9,0.5,1.9,131.5,0.12,20.0,23.6,"12:09:12",1
"20/07/03","12:20",0.0,23.3,79.2,1007.6,163.3,1.0,1.8,162.3,0.09,19.5,23.6,"12:14:42",1
"20/07/03","12:30",0.0,23.4,79.8,1008.1,145.3,0.7,2.4,74.1,0.09,19.8,23.8,"12:27:04",1
"20/07/03","12:40",0.0,23.3,80.2,1007.6,121.0,0.8,1.8,132.8,0.10,19.7,23.6,"12:39:12",1
"20/07/03","12:50",0.0,23.0,80.4,1008.1,115.3,1.1,2.4,122.0,0.09,19.5,23.5,"12:46:56",1
"20/07/03","13:00",0.0,23.0,80.6,1007.6,93.2,0.7,2.1,108.9,0.09,19.5,23.5,"12:52:56",1
"20/07/03","13:10",0.0,23.1,80.9,1008.1,83.9,0.6,2.0,120.5,0.08,19.7,23.7,"13:04:32",1
"20/07/03","13:20",0.0,23.2,81.3,1008.1,9.4,0.5,1.2,103.6,0.07,19.9,23.7,"13:10:56",1
"20/07/03","13:30",0.0,23.2,81.8,1007.6,14.8,0.6,1.7,28.7,0.09,20.0,23.9,"13:28:48",1
"20/07/03","13:40",0.0,23.1,82.6,1008.1,36.0,0.7,1.4,32.5,0.11,20.0,23.6,"13:30:16",1
"20/07/03","13:50",0.0,23.1,83.0,1007.8,12.4,0.7,1.4,61.4,0.10,20.1,23.9,"13:44:24",1
"20/07/03","14:00",0.0,23.1,83.3,1008.1,9.7,0.7,1.6,1.0,0.07,20.2,23.8,"13:51:12",1
"20/07/03","14:10",0.0,23.0,83.7,1007.6,29.6,0.6,1.4,42.5,0.07,20.1,23.7,"14:05:44",1
"20/07/03","14:20",0.0,23.0,83.8,1008.1,12.3,0.5,1.2,327.4,0.05,20.2,23.7,"14:12:40",1
"20/07/03","14:30",0.0,22.9,84.2,1007.8,33.6,0.6,1.6,40.1,0.04,20.1,23.8,"14:25:36",1
"20/07/03","14:40",0.0,22.7,84.6,1007.8,34.9,0.6,1.2,9.1,0.02,20.0,23.8,"14:33:04",1
"20/07/03","14:50",0.0,22.6,85.1,1007.4,351.6,0.3,0.9,328.6,0.05,20.0,23.7,"14:44:40",1
"20/07/03","15:00",0.0,22.6,85.7,1007.6,14.3,0.5,1.3,10.5,0.04,20.1,23.7,"14:58:56",1
"20/07/03","15:10",0.0,22.7,86.1,1007.4,50.3,0.3,1.2,0.8,0.06,20.3,23.8,"15:02:00",1
"20/07/03","15:20",0.0,22.6,86.7,1007.1,88.2,0.8,2.0,117.5,0.07,20.3,23.7,"15:15:36",1
"20/07/03","15:30",0.0,22.6,87.2,1007.1,45.7,0.5,1.7,92.2,0.06,20.4,23.7,"15:23:04",1
"20/07/03","15:40",0.0,22.6,87.5,1006.9,67.8,0.5,1.0,49.9,0.06,20.5,23.7,"15:31:36",1
"20/07/03","15:50",0.0,22.4,87.9,1006.4,109.1,0.6,2.0,119.2,0.05,20.3,23.7,"15:48:00",1
"20/07/03","16:00",0.0,22.4,88.4,1006.7,69.0,0.6,1.4,116.2,0.06,20.4,23.7,"15:50:40",1
"20/07/03","16:10",0.0,22.3,88.7,1006.4,82.7,0.6,2.0,112.6,0.05,20.4,23.8,"16:02:40",1
"20/07/03","16:20",0.0,22.1,89.0,1006.2,75.3,0.7,2.4,98.1,0.04,20.2,23.7,"16:11:52",1
"20/07/03","16:30",0.0,22.1,89.3,1006.0,106.0,0.5,1.8,100.7,0.03,20.3,23.5,"16:26:40",1
"20/07/03","16:40",0.0,22.1,89.6,1006.2,128.8,0.5,1.9,137.5,0.02,20.4,23.7,"16:37:04",1
"20/07/03","16:50",0.0,21.9,89.8,1005.7,87.0,0.7,1.6,90.5,0.03,20.2,23.7,"16:44:00",1
"20/07/03","17:00",0.0,21.8,90.0,1005.5,30.4,0.5,1.1,45.4,0.01,20.1,23.3,"16:50:16",1
"20/07/03","17:10",0.0,21.7,90.3,1006.0,133.6,0.3,1.1,105.9,0.01,20.1,23.5,"17:00:56",1
"20/07/03","17:20",0.0,21.5,90.5,1005.7,138.5,0.6,1.2,111.3,0.00,19.9,23.5,"17:14:24",1
"20/07/03","17:30",0.0,21.4,90.7,1005.2,112.5,0.6,1.7,113.2,0.00,19.9,23.6,"17:22:48",1
"20/07/03","17:40",0.0,21.4,90.8,1005.2,37.5,0.6,1.4,98.4,0.00,19.9,23.5,"17:32:16",1
"20/07/03","17:50",0.0,21.0,91.1,1005.2,94.5,1.2,2.7,124.9,0.00,19.5,23.4,"17:49:20",1
"20/07/03","18:00",0.0,20.8,91.3,1005.5,112.3,1.0,2.7,129.9,0.00,19.4,23.5,"17:50:24",1
"20/07/03","18:10",0.0,20.7,91.6,1005.2,95.7,0.6,1.8,111.4,0.00,19.3,23.1,"18:07:04",1
"20/07/03","18:20",0.0,20.6,91.8,1005.2,125.2,1.0,2.8,121.4,0.00,19.3,22.9,"18:11:12",1
"20/07/03","18:30",0.0,20.5,92.0,1005.0,164.4,0.6,2.0,116.1,0.00,19.2,23.1,"18:21:04",1
"20/07/03","18:40",0.0,20.4,92.1,1005.2,165.2,0.5,1.1,175.5,0.00,19.1,23.1,"18:34:16",1
"20/07/03","18:50",0.0,20.4,92.3,1005.0,18.7,0.6,2.4,117.9,0.00,19.1,23.0,"18:46:00",1
"20/07/03","19:00",0.0,20.3,92.3,1005.0,270.9,1.1,2.0,327.5,0.00,19.0,23.0,"18:51:20",1
"20/07/03","19:10",0.0,20.2,92.5,1005.0,313.1,0.3,1.3,235.5,0.00,19.0,23.0,"19:00:16",1
"20/07/03","19:20",0.0,20.1,92.7,1005.0,283.8,0.2,0.8,331.9,0.00,18.9,22.8,"19:12:32",1
"20/07/03","19:30",0.0,20.1,92.8,1004.8,279.0,0.2,0.8,317.6,0.00,18.9,22.8,"19:20:48",1
"20/07/03","19:40",0.0,20.0,92.9,1005.0,253.1,0.2,0.9,203.4,0.00,18.9,22.7,"19:35:36",1
"20/07/03","19:50",0.0,20.0,93.0,1005.2,286.0,0.2,1.0,318.6,0.00,18.9,22.5,"19:41:04",1
"20/07/03","20:00",0.0,20.0,93.1,1005.0,133.7,0.3,1.8,116.9,0.00,18.9,22.3,"19:58:34",1
"20/07/03","20:10",0.0,19.9,93.2,1005.0,139.0,0.2,0.6,121.3,0.00,18.8,22.4,"20:04:08",1
"20/07/03","20:20",0.0,19.9,93.3,1005.0,221.8,0.2,0.9,212.1,0.00,18.8,22.3,"20:13:44",1
"20/07/03","20:30",0.0,19.9,93.4,1005.0,298.6,0.3,0.6,228.2,0.00,18.8,22.2,"20:21:04",1
"20/07/03","20:40",0.0,19.9,93.5,1005.2,288.0,0.3,0.8,274.3,0.00,18.9,22.4,"20:31:04",1
"20/07/03","20:50",0.0,19.8,93.5,1005.0,322.4,0.2,0.6,323.1,0.00,18.8,22.3,"20:42:32",1
"20/07/03","21:00",0.0,19.8,93.7,1005.5,339.8,0.2,0.6,323.1,0.00,18.8,22.2,"20:56:24",1
"20/07/03","21:10",0.0,19.8,93.7,1005.0,313.6,0.3,0.8,358.4,0.00,18.8,22.2,"21:02:48",1
"20/07/03","21:20",0.0,19.8,93.9,1004.8,288.6,0.3,1.0,359.0,0.00,18.8,22.1,"21:19:36",1
"20/07/03","21:30",0.0,19.8,94.0,1004.8,266.0,0.3,0.8,312.0,0.00,18.8,22.2,"21:22:32",1
"20/07/03","21:40",0.0,19.8,94.0,1004.8,288.7,0.2,0.6,294.0,0.00,18.8,22.4,"21:38:02",1
"20/07/03","21:50",0.0,19.9,94.1,1004.8,210.1,0.2,0.5,129.0,0.00,19.0,22.1,"21:47:04",1
"20/07/03","22:00",0.0,19.8,94.2,1004.3,22.4,0.2,0.8,56.0,0.00,18.9,22.2,"21:52:00",1
"20/07/03","22:10",0.0,19.8,94.3,1004.1,306.0,0.3,0.6,308.6,0.00,18.9,22.0,"22:04:48",1
"20/07/03","22:20",0.0,19.9,94.3,1003.8,252.4,0.1,0.6,247.1,0.00,19.0,22.2,"22:18:16",1
"20/07/03","22:30",0.0,19.9,94.4,1003.8,263.3,0.2,0.5,260.5,0.00,19.0,22.1,"22:20:08",1
"20/07/03","22:40",0.0,20.0,94.5,1003.6,251.4,0.7,1.3,230.4,0.00,19.1,22.4,"22:34:16",1
"20/07/03","22:50",0.0,20.0,94.5,1003.6,255.0,0.7,1.1,238.9,0.00,19.1,22.0,"22:43:28",1
"20/07/03","23:00",0.0,20.0,94.7,1003.4,298.1,0.8,1.7,326.4,0.00,19.2,22.1,"22:55:12",1
"20/07/03","23:10",0.0,20.0,94.7,1003.6,320.3,0.8,1.8,331.5,0.00,19.2,22.3,"23:08:20",1
"20/07/03","23:20",0.0,20.0,94.8,1002.6,315.6,1.1,2.0,336.4,0.00,19.2,22.2,"23:10:24",1
"20/07/03","23:30",0.0,19.9,94.9,1002.6,317.7,0.7,1.6,338.3,0.00,19.1,22.1,"23:23:00",1
"20/07/03","23:40",0.0,20.0,94.9,1002.9,288.7,1.1,2.2,330.0,0.00,19.2,22.2,"23:38:20",1
"20/07/03","23:50",0.0,20.0,95.0,1002.2,253.1,0.8,2.1,318.6,0.00,19.2,22.2,"23:40:40",1
"20/07/03","24:00",0.0,20.0,95.1,1002.6,257.2,1.2,2.7,240.2,0.00,19.2,22.0,"23:56:48",1
